User: anonymous   Login
Location: Newark
(40.3500°N, 15.2333°E)
Time: 18:28:59
(UTC+00:00)
Language:

A-11 Canister half - Orbit

View from above orbital plane
View from above orbital plane
View from above satellite
View from above satellite

Ground track
Ground track

The orbit data is extracted from the following two-line orbital elements,

1    53U 60009E   20020.41727788 -.00000016 +00000-0 +68239-3 0  9990
2    53 047.2784 358.5900 0099349 359.7790 000.2942 12.17236526650414
Epoch (UTC): 20 January 2020 10:00:52
Eccentricity: 0.0099349
inclination: 47.2784°
perigee height: 1525 km
apogee height: 1684 km
right ascension of ascending node: 358.5900°
argument of perigee: 359.7790°
revolutions per day: 12.17236526
mean anomaly at epoch: 0.2942°
orbit number at epoch: 65041

The dashed part of the orbit path shows where the satellite is in the earth's shadow,  

DLR